Location: Bussy-Saint-Georges
(48.8410°N, 2.7017°E)
Time: 22:44:56
(UTC+00:00)

Cosmos 1269 Rocket - Pass Details

Date: 18 October 2021
Orbit: 773 x 778 km, 74.1° (Epoch: 07 December)

Event Time Altitude Azimuth Distance (km) Brightness Sun altitude
Rises 17:53:56 0° 339° (NNW) 3,270 7.5 -10.7°
Reaches altitude 10° 17:56:23 10° 344° (NNW) 2,338 6.7 -11.1°
Maximum altitude 18:01:35 53° 62° (ENE) 953 4.2 -11.9°
Drops below altitude 10° 18:06:44 10° 139° (SE) 2,320 6.1 -12.8°
Enters shadow 18:08:38 - 143° (SE) 3,038 6.7 -13.1°
